Location: Old Broadwell Mill Observatory
(33.8015°N, 85.8137°W)
Time: 17:18:49
(UTC-06:00)

Amateur Radio Satellites - All Passes

Search period start: 18 January 2018 16:48
Search period end: 19 January 2018 16:48
Location: Old Broadwell Mill Observatory, 33.8015°N, 85.8137°W

Satellite Date Start Highest point End Downlink Frequencies (MHz)
Time Altitude Azimuth
XW-2F 18 Jan 16:57:01 17:00:46 58° 76° (ENE) 17:04:31 145.980 - 146.000
KAITUO 1B 18 Jan 17:00:12 17:03:49 46° 75° (ENE) 17:07:26 145.475/437.950
NO-84 18 Jan 17:02:06 17:05:15 70° 312° (NW) 17:08:11 435.350 FM
XW-2D 18 Jan 17:04:15 17:08:05 85° 77° (ENE) 17:11:55 145.860 - 145.880
CUBEBUG 2 18 Jan 17:12:02 17:14:29 15° 67° (ENE) 17:17:00 437.445
SRMSAT 18 Jan 17:15:26 17:19:20 18° 189° (S) 17:23:15 437.500
NUDT-PHONESAT 18 Jan 17:16:03 17:19:46 73° 76° (ENE) 17:23:30 437.300
HO-68 18 Jan 17:16:33 17:23:16 45° 68° (ENE) 17:29:59 435.675
SEEDS 18 Jan 17:20:03 17:22:48 17° 69° (ENE) 17:25:32 437.485
XW-2B 18 Jan 17:21:49 17:25:36 57° 260° (W) 17:29:22 145.730 - 145.750
UWE-3 18 Jan 17:24:24 17:25:35 11° 65° (ENE) 17:26:47 435.000/436.395/437.385
CUTE 1.7 + AOD 2 18 Jan 17:26:00 17:29:53 35° 73° (ENE) 17:33:47 437.475
RS-15 18 Jan 17:38:47 17:50:29 85° 62° (ENE) 18:01:32 29.354- 29.394
LilacSat-2 18 Jan 17:47:02 17:50:11 24° 264° (W) 17:53:21 437.200
KKS-1 18 Jan 17:49:26 17:53:24 32° 288° (WNW) 17:57:22 437.445
STRAND 1 18 Jan 17:52:22 17:53:31 11° 92° (E) 17:54:40 437.568
XW-2C 18 Jan 17:52:51 17:55:51 22° 264° (W) 17:58:52 145.795 - 145.815
ZACube-1 18 Jan 17:53:30 17:55:15 12° 66° (ENE) 17:57:00 437.345
AO-73 18 Jan 18:01:35 18:03:39 13° 66° (ENE) 18:05:44 145.935
STARS 18 Jan 18:12:42 18:16:57 47° 286° (WNW) 18:21:10 437.465
XW-2A 18 Jan 18:18:21 18:21:07 23° 73° (ENE) 18:23:54 145.665 - 145.685
CUTE-I 18 Jan 18:19:26 18:23:40 24° 264° (W) 18:27:55 437.470
Oscar 11 18 Jan 18:36:36 18:39:46 20° 70° (ENE) 18:42:58 .
AAUSAT CUBESAT 2 18 Jan 18:43:38 18:47:45 70° 77° (ENE) 18:51:52 437.432
BEESAT 3 18 Jan 18:45:04 18:48:48 43° 58° (ENE) 18:52:28 437.485
CUBEBUG 2 18 Jan 18:46:41 18:50:41 39° 262° (W) 18:54:51 437.445
PCSat 18 Jan 18:52:51 18:57:51 37° 58° (ENE) 19:02:51 145.827
FO-29 18 Jan 18:53:16 18:56:48 18° 95° (E) 19:00:23 435.910
SEEDS 18 Jan 18:54:25 18:58:11 32° 263° (W) 19:01:58 437.485
UWE-3 18 Jan 18:57:10 19:01:26 57° 260° (W) 19:05:51 435.000/436.395/437.385
CUTE 1.7 + AOD 2 18 Jan 19:03:15 19:05:46 15° 266° (W) 19:08:18 437.475
HO-68 18 Jan 19:05:03 19:11:03 29° 263° (W) 19:17:06 435.675
ZACube-1 18 Jan 19:26:42 19:30:58 52° 261° (W) 19:35:21 437.345
BEESAT 2 18 Jan 19:26:45 19:30:20 31° 56° (NE) 19:33:53 435.950
STRAND 1 18 Jan 19:27:58 19:33:05 69° 285° (WNW) 19:38:12 437.568
AO-73 18 Jan 19:35:10 19:39:23 47° 261° (W) 19:43:43 145.935
DELFI C3 18 Jan 19:45:53 19:48:42 19° 71° (ENE) 19:51:32 145.870
XW-2A 18 Jan 19:51:56 19:53:45 14° 266° (W) 19:55:35 145.665 - 145.685
RS-15 18 Jan 19:53:54 20:01:14 20° 260° (W) 20:08:25 29.354- 29.394
nSIGHT-1 18 Jan 20:07:33 20:10:38 55° 134° (SE) 20:13:44 .
ISS 18 Jan 20:10:32 20:13:32 36° 132° (SE) 20:16:34 437.550
Oscar 11 18 Jan 20:11:55 20:15:41 28° 263° (W) 20:19:27 .
BEESAT 3 18 Jan 20:24:48 20:25:51 11° 252° (WSW) 20:26:53 437.485
PCSat 18 Jan 20:36:41 20:40:59 24° 253° (WSW) 20:45:15 145.827
FO-29 18 Jan 20:37:17 20:42:04 39° 288° (WNW) 20:46:55 435.910
Max Valier Satellite 18 Jan 20:55:22 20:59:05 77° 259° (W) 21:02:50 145.860
BEESAT 2 18 Jan 21:05:13 21:07:45 16° 251° (WSW) 21:10:16 435.950
AO-85 18 Jan 21:05:49 21:10:48 59° 59° (ENE) 21:16:02 145.980
TIGRISAT 18 Jan 21:13:03 21:17:40 54° 100° (E) 21:22:14 435.000
LO-87 18 Jan 21:17:01 21:17:54 11° 68° (ENE) 21:18:48 145.935 - 145.965
DELFI C3 18 Jan 21:20:07 21:23:15 23° 264° (W) 21:26:25 145.870
EO-88 18 Jan 21:20:16 21:23:51 54° 260° (W) 21:27:27 145.990 - 145.960
UNISAT 6 18 Jan 21:27:35 21:32:18 88° 99° (E) 21:37:00 437.425
YUBILEINY 18 Jan 21:30:58 21:37:12 22° 82° (E) 21:43:24 435.215
nSIGHT-1 18 Jan 21:45:17 21:47:02 14° 329° (NNW) 21:48:47 .
ISS 18 Jan 21:47:42 21:50:06 19° 327° (NNW) 21:52:31 437.550
ESTCUBE 1 18 Jan 22:02:44 22:06:57 40° 73° (ENE) 22:11:12 437.505/2401.250
PRISM 18 Jan 22:24:55 22:28:59 81° 102° (ESE) 22:33:04 437.425
SPROUT 18 Jan 22:30:27 22:33:08 17° 68° (ENE) 22:35:51 437.525
AIST 2D 18 Jan 22:35:47 22:39:07 45° 99° (E) 22:42:26 435.315
NANOSAT C BR1 18 Jan 22:40:01 22:41:19 11° 92° (E) 22:42:37 145.865
LO-87 18 Jan 22:47:40 22:50:54 34° 262° (W) 22:54:10 145.935 - 145.965
AO-85 18 Jan 22:47:54 22:50:50 15° 252° (WSW) 22:53:48 145.980
QB50P2 18 Jan 22:49:47 22:53:00 20° 95° (E) 22:56:12 145.880/145.840
TIGRISAT 18 Jan 22:51:38 22:53:49 13° 294° (WNW) 22:56:00 435.000
EO-79 18 Jan 23:20:51 23:24:57 43° 99° (E) 23:29:01 145.935-145.965
DUCHIFAT 1 18 Jan 23:22:52 23:26:44 33° 98° (E) 23:30:33 145.980
YUBILEINY 18 Jan 23:24:22 23:33:07 67° 278° (W) 23:41:54 435.215
ESTCUBE 1 18 Jan 23:41:15 23:43:51 15° 266° (W) 23:46:29 437.505/2401.250
VELOX 1 18 Jan 23:49:02 23:53:25 79° 78° (ENE) 23:57:49 145.980
POLYITAN 1 18 Jan 23:55:03 23:59:20 69° 284° (WNW) 00:03:35 437.675
SPROUT 19 Jan 00:04:54 00:08:43 33° 262° (W) 00:12:34 437.525
UKube-1 19 Jan 00:08:34 00:10:25 13° 66° (ENE) 00:12:15 .
O/OREOS (USA 219) 19 Jan 00:12:06 00:16:36 71° 108° (ESE) 00:21:05 437.305
NANOSAT C BR1 19 Jan 00:13:06 00:17:12 47° 286° (WNW) 00:21:17 145.865
DX 1 19 Jan 00:13:30 00:17:02 25° 70° (ENE) 00:20:35 434.975-435.025
QB50P2 19 Jan 00:25:06 00:28:42 27° 289° (WNW) 00:32:16 145.880/145.840
Gurwin Techsat 1B 19 Jan 00:29:31 00:33:13 19° 94° (E) 00:36:54 435.225
BUGSAT 1 19 Jan 00:33:17 00:37:24 47° 100° (E) 00:41:29 437.445
EO-79 19 Jan 00:58:13 01:00:16 13° 293° (WNW) 01:02:17 145.935-145.965
DUCHIFAT 1 19 Jan 00:59:22 01:02:04 17° 292° (WNW) 01:04:47 145.980
Oscar 19 19 Jan 01:01:03 01:06:07 55° 101° (E) 01:11:08 437.125/150
AO-91 19 Jan 01:01:54 01:06:23 70° 102° (ESE) 01:11:20 145.960
50 SAT 19 Jan 01:12:18 01:15:17 50° 260° (W) 01:18:18 437.505
BEESAT 19 Jan 01:13:30 01:14:46 11° 64° (ENE) 01:16:02 436.000
NO-84 19 Jan 01:14:13 01:17:08 66° 231° (SW) 01:20:16 435.350 FM
MOZHAYETS 4 19 Jan 01:22:14 01:25:55 24° 70° (ENE) 01:29:37
UKube-1 19 Jan 01:41:51 01:45:58 46° 260° (W) 01:50:07 .
DX 1 19 Jan 01:49:44 01:53:06 22° 264° (W) 01:56:30 434.975-435.025
ITUPSAT 1 19 Jan 02:06:15 02:10:43 42° 72° (ENE) 02:15:13 437.325
Gurwin Techsat 1B 19 Jan 02:08:16 02:13:17 43° 288° (WNW) 02:18:17 435.225
BUGSAT 1 19 Jan 02:10:37 02:12:17 12° 293° (WNW) 02:13:56 437.445
AO-7 19 Jan 02:33:30 02:41:16 40° 100° (E) 02:48:55 .
nSIGHT-1 19 Jan 02:38:12 02:39:49 13° 30° (NNE) 02:41:26 .
Oscar 19 19 Jan 02:42:00 02:44:55 15° 295° (WNW) 02:47:48 437.125/150
ISS 19 Jan 02:42:47 02:43:50 11° 28° (NNE) 02:44:51 437.550
BEESAT 19 Jan 02:47:11 02:51:54 67° 258° (WSW) 02:56:39 436.000
CUBESAT XI-V 19 Jan 02:55:18 02:59:55 60° 75° (ENE) 03:04:33 437.345
MOZHAYETS 4 19 Jan 02:59:00 03:02:54 27° 264° (W) 03:06:50
KKS-1 19 Jan 03:10:07 03:11:12 11° 65° (ENE) 03:12:16 437.445
FALCONSAT 3 19 Jan 03:15:35 03:18:25 21° 151° (SSE) 03:21:15 435.103
ITAMSAT 1 19 Jan 03:41:24 03:46:37 86° 284° (WNW) 03:51:49 435.822/435.867
ITUPSAT 1 19 Jan 03:45:43 03:48:40 16° 266° (W) 03:51:37 437.325
nSIGHT-1 19 Jan 04:13:06 04:16:15 63° 225° (SW) 04:19:24 .
ISS 19 Jan 04:17:26 04:20:44 87° 48° (NE) 04:24:00 437.550
AO-7 19 Jan 04:26:17 04:33:51 40° 296° (WNW) 04:41:25 .
M-CUBED/EXP-1 PRIME 19 Jan 04:27:06 04:30:23 54° 105° (ESE) 04:33:33 437.505
SO-50 19 Jan 04:31:12 04:34:59 28° 112° (ESE) 04:38:48 436.795
CUBESAT XI-V 19 Jan 04:36:37 04:37:35 11° 268° (W) 04:38:32 437.345
DOVE 4 19 Jan 04:37:45 04:42:06 80° 282° (WNW) 04:46:43 437.250
XW-2D 19 Jan 04:42:39 04:43:48 11° 93° (E) 04:44:56 145.860 - 145.880
KKS-1 19 Jan 04:42:51 04:47:11 58° 259° (W) 04:51:33 437.445
FALCONSAT 3 19 Jan 04:53:32 04:57:12 76° 165° (SSE) 05:00:52 435.103
XW-2B 19 Jan 04:58:49 05:01:26 18° 95° (E) 05:04:02 145.730 - 145.750
CUTE-I 19 Jan 05:00:28 05:04:09 19° 95° (E) 05:07:49 437.470
STARS 19 Jan 05:04:47 05:09:08 90° 66° (ENE) 05:13:31 437.465
STRAND 1 19 Jan 05:04:52 05:06:21 11° 63° (ENE) 05:07:51 437.568
LilacSat-2 19 Jan 05:23:13 05:26:50 44° 99° (E) 05:30:25 437.200
XW-2C 19 Jan 05:28:08 05:31:47 46° 100° (E) 05:35:22 145.795 - 145.815
RS-15 19 Jan 05:49:23 05:56:13 17° 98° (E) 06:03:02 29.354- 29.394
XW-2F 19 Jan 06:06:34 06:10:12 51° 284° (WNW) 06:13:48 145.980 - 146.000
KAITUO 1B 19 Jan 06:08:27 06:12:07 68° 283° (WNW) 06:15:45 145.475/437.950
SO-50 19 Jan 06:11:42 06:15:22 25° 307° (NW) 06:19:04 436.795
XW-2D 19 Jan 06:14:37 06:18:03 35° 286° (WNW) 06:21:27 145.860 - 145.880
NUDT-PHONESAT 19 Jan 06:23:25 06:26:54 43° 285° (WNW) 06:30:23 437.300
AAUSAT CUBESAT 2 19 Jan 06:30:52 06:33:05 14° 94° (E) 06:35:17 437.432
XW-2B 19 Jan 06:32:33 06:35:30 22° 288° (WNW) 06:38:26 145.730 - 145.750
FALCONSAT 3 19 Jan 06:32:41 06:36:20 65° 360° (N) 06:39:59 435.103
HO-68 19 Jan 06:35:28 06:42:37 69° 103° (ESE) 06:49:44 435.675
CUTE-I 19 Jan 06:39:18 06:44:19 44° 288° (WNW) 06:49:20 437.470
STRAND 1 19 Jan 06:39:47 06:44:51 73° 258° (WSW) 06:49:57 437.568
CUBEBUG 2 19 Jan 06:40:35 06:45:17 58° 100° (E) 06:49:56 437.445
SEEDS 19 Jan 06:41:22 06:45:26 53° 100° (E) 06:49:29 437.485
FO-29 19 Jan 06:43:23 06:50:18 54° 73° (ENE) 06:56:26 435.910
CUTE 1.7 + AOD 2 19 Jan 06:49:50 06:54:00 65° 284° (WNW) 06:58:09 437.475
UWE-3 19 Jan 06:50:29 06:54:52 39° 98° (E) 06:59:10 435.000/436.395/437.385
XW-2A 19 Jan 07:15:18 07:18:29 40° 99° (E) 07:21:38 145.665 - 145.685
ZACube-1 19 Jan 07:18:47 07:23:05 40° 98° (E) 07:27:17 437.345
AO-73 19 Jan 07:26:48 07:31:08 43° 98° (E) 07:35:21 145.935
RS-15 19 Jan 07:54:34 08:06:53 83° 115° (ESE) 08:19:07 29.354- 29.394
Oscar 11 19 Jan 08:02:11 08:06:30 69° 100° (E) 08:10:46 .
AAUSAT CUBESAT 2 19 Jan 08:04:52 08:08:35 34° 287° (WNW) 08:12:17 437.432
TIGRISAT 19 Jan 08:08:05 08:11:49 28° 71° (ENE) 08:15:36 435.000
FALCONSAT 3 19 Jan 08:11:49 08:15:29 79° 195° (SSW) 08:19:09 435.103
CUBEBUG 2 19 Jan 08:19:18 08:21:19 13° 294° (WNW) 08:23:20 437.445
SEEDS 19 Jan 08:20:07 08:20:36 10° 294° (WNW) 08:21:04 437.485
UNISAT 6 19 Jan 08:22:19 08:26:28 45° 74° (ENE) 08:30:45 437.425
HO-68 19 Jan 08:24:47 08:29:37 20° 299° (WNW) 08:34:27 435.675
UWE-3 19 Jan 08:27:54 08:30:55 17° 292° (WNW) 08:33:55 435.000/436.395/437.385
FO-29 19 Jan 08:30:04 08:35:24 22° 264° (W) 08:40:20 435.910
Max Valier Satellite 19 Jan 08:30:37 08:32:13 12° 93° (E) 08:33:48 145.860
BEESAT 3 19 Jan 08:31:15 08:34:03 19° 110° (ESE) 08:36:52 437.485
EO-88 19 Jan 08:53:26 08:55:40 15° 95° (E) 08:57:52 145.990 - 145.960
ZACube-1 19 Jan 08:56:13 08:58:56 16° 293° (WNW) 09:01:39 437.345
DELFI C3 19 Jan 08:59:32 09:03:22 52° 100° (E) 09:07:12 145.870
AO-73 19 Jan 09:04:24 09:06:54 15° 293° (WNW) 09:09:23 145.935
PRISM 19 Jan 09:10:15 09:13:50 31° 72° (ENE) 09:17:26 437.425
BEESAT 2 19 Jan 09:15:17 09:17:21 14° 108° (ESE) 09:19:27 435.950
PCSat 19 Jan 09:29:59 09:35:21 77° 114° (ESE) 09:40:46 145.827
JUGNU 19 Jan 09:33:25 09:35:46 12° 165° (SSE) 09:38:08 437.505
YUBILEINY 19 Jan 09:39:35 09:48:03 52° 79° (E) 09:56:25 435.215
TIGRISAT 19 Jan 09:45:09 09:48:26 21° 265° (W) 09:51:48 435.000
FALCONSAT 3 19 Jan 09:51:23 09:54:16 22° 208° (SSW) 09:57:10 435.103
ESTCUBE 1 19 Jan 10:01:21 10:02:40 11° 92° (E) 10:03:59 437.505/2401.250
UNISAT 6 19 Jan 10:01:29 10:03:24 13° 268° (W) 10:05:20 437.425
Max Valier Satellite 19 Jan 10:02:47 10:06:04 30° 287° (WNW) 10:09:19 145.860
BEESAT 3 19 Jan 10:07:53 10:11:21 28° 305° (NW) 10:14:51 437.485
EO-79 19 Jan 10:09:58 10:13:01 20° 69° (ENE) 10:16:05 145.935-145.965
RS-15 19 Jan 10:10:27 10:20:45 30° 318° (NW) 10:31:00 29.354- 29.394
DUCHIFAT 1 19 Jan 10:11:50 10:14:15 15° 68° (ENE) 10:16:41 145.980
LO-87 19 Jan 10:18:09 10:21:00 21° 96° (E) 10:23:50 145.935 - 145.965
O/OREOS (USA 219) 19 Jan 10:25:57 10:30:25 70° 70° (ENE) 10:34:53 437.305
EO-88 19 Jan 10:26:17 10:29:14 24° 288° (WNW) 10:32:09 145.990 - 145.960
AIST 2D 19 Jan 10:38:31 10:41:50 39° 261° (W) 10:45:10 435.315
POLYITAN 1 19 Jan 10:43:16 10:47:19 49° 74° (ENE) 10:51:26 437.675
PRISM 19 Jan 10:46:40 10:49:07 15° 265° (W) 10:51:35 437.425
BEESAT 2 19 Jan 10:50:56 10:54:41 38° 302° (WNW) 10:58:29 435.950
NANOSAT C BR1 19 Jan 11:00:32 11:04:42 72° 77° (ENE) 11:08:55 145.865
QB50P2 19 Jan 11:12:42 11:16:51 60° 260° (W) 11:21:04 145.880/145.840
PCSat 19 Jan 11:16:32 11:19:19 14° 311° (NW) 11:22:07 145.827
AO-85 19 Jan 11:17:10 11:20:49 41° 114° (ESE) 11:24:40 145.980
BUGSAT 1 19 Jan 11:19:49 11:22:43 19° 69° (ENE) 11:25:38 437.445
JUGNU 19 Jan 11:20:01 11:24:04 19° 175° (S) 11:28:07 437.505
ESTCUBE 1 19 Jan 11:35:21 11:39:42 52° 286° (WNW) 11:44:02 437.505/2401.250
YUBILEINY 19 Jan 11:37:16 11:44:17 28° 276° (W) 11:51:18 435.215
VELOX 1 19 Jan 11:43:36 11:46:47 20° 95° (E) 11:49:59 145.980
EO-79 19 Jan 11:44:58 11:48:33 27° 263° (W) 11:52:10 145.935-145.965
DUCHIFAT 1 19 Jan 11:45:43 11:49:33 36° 262° (W) 11:53:26 145.980
Gurwin Techsat 1B 19 Jan 11:46:53 11:50:50 22° 67° (ENE) 11:54:48 435.225
LO-87 19 Jan 11:51:44 11:54:12 18° 289° (WNW) 11:56:39 145.935 - 145.965
SPROUT 19 Jan 11:53:37 11:57:50 52° 100° (E) 12:02:00 437.525
AO-91 19 Jan 11:56:54 11:59:43 25° 73° (ENE) 12:02:35 145.960
Oscar 19 19 Jan 12:13:49 12:18:51 54° 73° (ENE) 12:23:55 437.125/150
POLYITAN 1 19 Jan 12:22:34 12:23:19 10° 268° (W) 12:24:05 437.675
RS-15 19 Jan 12:35:24 12:39:19 12° 352° (N) 12:43:12 29.354- 29.394
BUGSAT 1 19 Jan 12:54:28 12:57:50 26° 263° (W) 13:01:17 437.445
AO-85 19 Jan 12:59:10 13:01:26 15° 311° (NW) 13:03:48 145.980
SO-50 19 Jan 13:07:20 13:08:59 12° 46° (NE) 13:10:39 436.795
JUGNU 19 Jan 13:08:21 13:12:24 19° 185° (S) 13:16:27 437.505
VELOX 1 19 Jan 13:19:24 13:23:12 29° 289° (WNW) 13:26:59 145.980
ITAMSAT 1 19 Jan 13:21:38 13:21:50 10° 62° (ENE) 13:22:02 435.822/435.867
Gurwin Techsat 1B 19 Jan 13:25:32 13:30:28 39° 261° (W) 13:35:26 435.225
SRMSAT 19 Jan 13:25:34 13:29:17 17° 170° (S) 13:33:01 437.500
AO-7 19 Jan 13:28:14 13:35:48 40° 64° (ENE) 13:43:24 .
SPROUT 19 Jan 13:31:53 13:33:11 11° 294° (WNW) 13:34:30 437.525
UKube-1 19 Jan 13:32:29 13:36:28 36° 99° (E) 13:40:25 .
AO-91 19 Jan 13:35:19 13:36:16 11° 266° (W) 13:37:15 145.960
DX 1 19 Jan 13:40:23 13:44:44 82° 100° (E) 13:49:05 434.975-435.025
Oscar 19 19 Jan 13:55:38 13:58:25 15° 267° (W) 14:01:13 437.125/150
50 SAT 19 Jan 14:01:54 14:04:49 37° 285° (WNW) 14:07:42 437.505
ITUPSAT 1 19 Jan 14:11:57 14:14:35 15° 94° (E) 14:17:13 437.325
SO-50 19 Jan 14:45:16 14:50:00 83° 244° (WSW) 14:54:47 436.795
BEESAT 19 Jan 14:51:10 14:55:42 41° 99° (E) 15:00:13 436.000
RS-15 19 Jan 14:51:11 14:59:06 20° 31° (NNE) 15:06:44 29.354- 29.394
ITAMSAT 1 19 Jan 14:55:22 15:00:32 83° 257° (WSW) 15:05:43 435.822/435.867
CUBESAT XI-V 19 Jan 14:56:36 14:59:57 20° 95° (E) 15:03:15 437.345
MOZHAYETS 4 19 Jan 14:56:55 15:01:34 87° 283° (WNW) 15:06:10
JUGNU 19 Jan 14:58:23 15:00:42 12° 195° (SSW) 15:03:01 437.505
M-CUBED/EXP-1 PRIME 19 Jan 15:07:54 15:12:03 40° 70° (ENE) 15:16:00 437.505
UKube-1 19 Jan 15:09:31 15:12:08 16° 292° (WNW) 15:14:45 .
SRMSAT 19 Jan 15:13:26 15:17:48 21° 180° (S) 15:22:11 437.500
AO-7 19 Jan 15:20:45 15:28:25 40° 260° (W) 15:36:10 .
DOVE 4 19 Jan 15:39:22 15:43:42 63° 77° (ENE) 15:47:53 437.250
ITUPSAT 1 19 Jan 15:47:59 15:52:35 47° 287° (WNW) 15:57:10 437.325
LilacSat-2 19 Jan 16:02:36 16:04:31 13° 69° (ENE) 16:06:26 437.200
XW-2C 19 Jan 16:06:48 16:08:47 14° 69° (ENE) 16:10:45 145.795 - 145.815
CUTE-I 19 Jan 16:18:33 16:22:32 22° 67° (ENE) 16:26:31 437.470
NO-84 19 Jan 16:25:23 16:28:34 70° 132° (SE) 16:31:33 435.350 FM
BEESAT 19 Jan 16:30:00 16:33:06 17° 293° (WNW) 16:36:11 436.000
CUBESAT XI-V 19 Jan 16:33:13 16:37:18 32° 288° (WNW) 16:41:20 437.345
KKS-1 19 Jan 16:37:37 16:41:41 34° 99° (E) 16:45:44 437.445
